Location: Bemmer
(51.5498°N, 5.6249°E)
Time: 02:55:57
(UTC+00:00)

Terra - Pass Details

Date: 03 March 2021
Orbit: 701 x 703 km, 98.2° (Epoch: 13 April)

Event Time Altitude Azimuth Distance (km) Brightness Sun altitude
Exits shadow 19:42:41 13° 34° (NNE) 1,970 4.0 -22.5°
Drops below altitude 10° 19:43:52 10° 20° (NNE) 2,184 4.3 -22.6°
Sets 19:47:03 0° 358° (N) 3,108 5.4 -23.1°
